Year,Month,Day,Hour,Minute,Value (Times are PST for temperature in C)
2017,07,05,10,16,19.90
2017,07,05,10,17,19.90
2017,07,05,10,18,19.90
2017,07,05,10,19,19.90
2017,07,05,10,21,19.90
2017,07,05,10,22,19.90
2017,07,05,10,23,19.90
2017,07,05,10,24,19.90
2017,07,05,10,25,19.80
2017,07,05,10,26,19.80
2017,07,05,10,27,19.80
2017,07,05,10,28,19.80
2017,07,05,10,29,19.80
2017,07,05,10,30,19.80
2017,07,05,10,31,19.80
2017,07,05,10,32,19.80
2017,07,05,10,33,19.80
2017,07,05,10,34,19.80
2017,07,05,10,35,19.80
2017,07,05,10,36,19.80
2017,07,05,10,37,19.70
2017,07,05,10,38,19.60
2017,07,05,10,39,19.60
2017,07,05,10,40,19.50
2017,07,05,10,41,19.40
2017,07,05,10,42,19.40
2017,07,05,10,43,19.30
2017,07,05,10,44,19.30
2017,07,05,10,45,19.20
2017,07,05,10,46,19.10
2017,07,05,10,47,19.10
2017,07,05,10,48,19.10
2017,07,05,10,49,19.10
2017,07,05,10,50,19.10
2017,07,05,10,51,19.10
2017,07,05,10,52,19.10
2017,07,05,10,53,19.10
2017,07,05,10,54,19.10
2017,07,05,10,55,19.10
2017,07,05,10,56,19.20
2017,07,05,10,57,19.30
2017,07,05,10,58,19.40
2017,07,05,10,59,19.50
2017,07,05,11,00,19.60
2017,07,05,11,01,19.70
2017,07,05,11,02,19.80
2017,07,05,11,03,19.80
2017,07,05,11,04,19.90
2017,07,05,11,05,19.90
2017,07,05,11,06,19.90
2017,07,05,11,07,20.00
2017,07,05,11,08,20.10
2017,07,05,11,09,20.10
2017,07,05,11,10,20.10
2017,07,05,11,11,20.20
2017,07,05,11,12,20.20
2017,07,05,11,13,20.20
2017,07,05,11,14,20.20
2017,07,05,11,15,20.30
2017,07,05,11,16,20.40
2017,07,05,11,17,20.50
2017,07,05,11,18,20.50
2017,07,05,11,19,20.70
2017,07,05,11,20,20.80
2017,07,05,11,21,20.80
2017,07,05,11,22,20.80
2017,07,05,11,23,20.80
2017,07,05,11,24,20.80
2017,07,05,11,25,20.90
2017,07,05,11,26,20.90
2017,07,05,11,27,20.80
2017,07,05,11,28,20.70
2017,07,05,11,29,20.70
2017,07,05,11,30,20.50
2017,07,05,11,31,20.50
2017,07,05,11,32,20.30
2017,07,05,11,33,20.20
2017,07,05,11,34,20.10
2017,07,05,11,35,20.10
2017,07,05,11,36,20.10
2017,07,05,11,37,20.10
2017,07,05,11,38,20.20
2017,07,05,11,39,20.40
2017,07,05,11,40,20.40
2017,07,05,11,41,20.40
2017,07,05,11,42,20.40
2017,07,05,11,43,20.40
2017,07,05,11,44,20.30
2017,07,05,11,45,20.30
2017,07,05,11,46,20.20
2017,07,05,11,47,20.20
2017,07,05,11,48,20.30
2017,07,05,11,49,20.30
2017,07,05,11,50,20.30
2017,07,05,11,51,20.40
2017,07,05,11,52,20.50
2017,07,05,11,53,20.50
2017,07,05,11,54,20.60
2017,07,05,11,55,20.70
2017,07,05,11,56,20.60
2017,07,05,11,57,20.60
2017,07,05,11,58,20.60
2017,07,05,11,59,20.50
2017,07,05,12,00,20.50
2017,07,05,12,01,20.50
2017,07,05,12,02,20.40
2017,07,05,12,03,20.40
2017,07,05,12,04,20.50
2017,07,05,12,05,20.40
2017,07,05,12,06,20.40
2017,07,05,12,07,20.50
2017,07,05,12,08,20.50
2017,07,05,12,09,20.50
2017,07,05,12,10,20.50
2017,07,05,12,11,20.50
2017,07,05,12,12,20.50
2017,07,05,12,13,20.60
2017,07,05,12,14,20.80
2017,07,05,12,15,20.90
2017,07,05,12,16,20.90
2017,07,05,12,17,20.80
2017,07,05,12,18,20.90
2017,07,05,12,19,20.90
2017,07,05,12,20,21.00
2017,07,05,12,21,21.00
2017,07,05,12,22,21.10
2017,07,05,12,23,21.10
2017,07,05,12,24,21.10
2017,07,05,12,25,21.10
2017,07,05,12,26,21.10
2017,07,05,12,27,21.00
2017,07,05,12,28,21.00
2017,07,05,12,29,20.80
2017,07,05,12,30,20.70
2017,07,05,12,31,20.60
2017,07,05,12,32,20.60
2017,07,05,12,33,20.60
2017,07,05,12,34,20.70
2017,07,05,12,35,20.80
2017,07,05,12,36,20.70
2017,07,05,12,37,20.80
2017,07,05,12,38,20.80
2017,07,05,12,39,20.90
2017,07,05,12,40,20.90
2017,07,05,12,41,21.00
2017,07,05,12,42,21.10
2017,07,05,12,43,21.30
2017,07,05,12,44,21.40
2017,07,05,12,45,21.40
2017,07,05,12,46,21.50
2017,07,05,12,47,21.50
2017,07,05,12,48,21.60
2017,07,05,12,49,21.60
2017,07,05,12,50,21.60
2017,07,05,12,51,21.60
2017,07,05,12,52,21.60
2017,07,05,12,53,21.50
2017,07,05,12,54,21.50
2017,07,05,12,55,21.60
2017,07,05,12,56,21.60
2017,07,05,12,57,21.50
2017,07,05,12,58,21.40
2017,07,05,12,59,21.50
2017,07,05,13,00,21.60
2017,07,05,13,01,21.60
2017,07,05,13,02,21.60
2017,07,05,13,03,21.60
2017,07,05,13,04,21.70
2017,07,05,13,05,21.90
2017,07,05,13,06,21.90
2017,07,05,13,07,22.00
2017,07,05,13,08,22.10
2017,07,05,13,09,22.10
2017,07,05,13,10,22.10
2017,07,05,13,11,22.10
2017,07,05,13,12,22.00
2017,07,05,13,13,21.90
2017,07,05,13,14,21.70
2017,07,05,13,15,21.60
2017,07,05,13,16,21.60
2017,07,05,13,17,21.60
2017,07,05,13,18,21.50
2017,07,05,13,19,21.40
2017,07,05,13,20,21.40
2017,07,05,13,21,21.30
2017,07,05,13,22,21.30
2017,07,05,13,23,21.30
2017,07,05,13,24,21.20
2017,07,05,13,25,21.20
2017,07,05,13,26,21.10
2017,07,05,13,27,21.10
2017,07,05,13,28,21.30
2017,07,05,13,29,21.40
2017,07,05,13,30,21.40
2017,07,05,13,31,21.40
2017,07,05,13,32,21.40
2017,07,05,13,33,21.60
2017,07,05,13,34,21.60
2017,07,05,13,35,21.50
2017,07,05,13,36,21.60
2017,07,05,13,37,21.60
2017,07,05,13,38,21.60
2017,07,05,13,39,21.60
2017,07,05,13,40,21.60
2017,07,05,13,41,21.60
2017,07,05,13,42,21.60
2017,07,05,13,43,21.60
2017,07,05,13,44,21.40
2017,07,05,13,45,21.40
2017,07,05,13,46,21.40
2017,07,05,13,47,21.40
2017,07,05,13,48,21.40
2017,07,05,13,49,21.40
2017,07,05,13,50,21.40
2017,07,05,13,51,21.40
2017,07,05,13,52,21.40
2017,07,05,13,53,21.50
2017,07,05,13,54,21.50
2017,07,05,13,55,21.60
2017,07,05,13,56,21.50
2017,07,05,13,57,21.40
2017,07,05,13,58,21.40
2017,07,05,13,59,21.50
2017,07,05,14,00,21.60
2017,07,05,14,01,21.60
2017,07,05,14,02,21.60
2017,07,05,14,03,21.60
2017,07,05,14,04,21.60
2017,07,05,14,05,21.60
2017,07,05,14,06,21.60
2017,07,05,14,07,21.60
2017,07,05,14,08,21.60
2017,07,05,14,09,21.60
2017,07,05,14,10,21.60
2017,07,05,14,11,21.60
2017,07,05,14,12,21.60
2017,07,05,14,13,21.60
2017,07,05,14,14,21.70
2017,07,05,14,15,21.70
2017,07,05,14,16,21.70
2017,07,05,14,17,21.80
2017,07,05,14,18,21.90
2017,07,05,14,19,22.00
2017,07,05,14,20,22.10
2017,07,05,14,21,22.20
2017,07,05,14,22,22.30
2017,07,05,14,23,22.50
2017,07,05,14,24,22.70
2017,07,05,14,25,22.80
2017,07,05,14,26,22.90
2017,07,05,14,27,22.90
2017,07,05,14,28,22.90
2017,07,05,14,29,22.80
2017,07,05,14,30,22.80
2017,07,05,14,31,22.70
2017,07,05,14,32,22.60
2017,07,05,14,33,22.40
2017,07,05,14,34,22.40
2017,07,05,14,35,22.30
2017,07,05,14,36,22.30
2017,07,05,14,37,22.30
2017,07,05,14,38,22.20
2017,07,05,14,39,22.20
2017,07,05,14,40,22.20
2017,07,05,14,41,22.30
2017,07,05,14,42,22.30
2017,07,05,14,43,22.30
2017,07,05,14,44,22.20
2017,07,05,14,45,22.10
2017,07,05,14,46,22.00
2017,07,05,14,47,21.80
2017,07,05,14,48,21.80
2017,07,05,14,49,21.70
2017,07,05,14,50,21.70
2017,07,05,14,51,21.60
2017,07,05,14,52,21.60
2017,07,05,14,53,21.60
2017,07,05,14,54,21.60
2017,07,05,14,55,21.60
2017,07,05,14,56,21.70
2017,07,05,14,57,21.80
2017,07,05,14,58,21.80
2017,07,05,14,59,21.80
2017,07,05,15,00,21.90
2017,07,05,15,01,22.00
2017,07,05,15,02,22.00
2017,07,05,15,03,22.10
2017,07,05,15,04,22.20
2017,07,05,15,05,22.30
2017,07,05,15,06,22.40
2017,07,05,15,07,22.60
2017,07,05,15,08,22.70
2017,07,05,15,09,22.80
2017,07,05,15,10,22.90
2017,07,05,15,11,22.90
2017,07,05,15,12,22.90
2017,07,05,15,13,22.90
2017,07,05,15,14,22.90
2017,07,05,15,15,22.90
2017,07,05,15,16,22.90
2017,07,05,15,17,22.90
2017,07,05,15,18,22.90
2017,07,05,15,19,22.90
2017,07,05,15,20,22.90
2017,07,05,15,21,22.90
2017,07,05,15,22,22.90
2017,07,05,15,23,22.90
2017,07,05,15,24,22.90
2017,07,05,15,25,22.90
2017,07,05,15,26,22.90
2017,07,05,15,27,22.90
2017,07,05,15,28,22.90
2017,07,05,15,29,22.90
2017,07,05,15,30,22.90
2017,07,05,15,31,22.90
2017,07,05,15,32,22.90
2017,07,05,15,33,22.90
2017,07,05,15,34,22.90
2017,07,05,15,35,22.80
2017,07,05,15,36,22.70
2017,07,05,15,37,22.50
2017,07,05,15,38,22.40
2017,07,05,15,39,22.30
2017,07,05,15,40,22.20
2017,07,05,15,41,22.20
2017,07,05,15,42,22.10
2017,07,05,15,43,22.20
2017,07,05,15,44,22.20
2017,07,05,15,45,22.30
2017,07,05,15,46,22.50
2017,07,05,15,47,22.50
2017,07,05,15,48,22.60
2017,07,05,15,49,22.60
2017,07,05,15,50,22.60
2017,07,05,15,51,22.60
2017,07,05,15,52,22.60
2017,07,05,15,53,22.50
2017,07,05,15,54,22.50
2017,07,05,15,55,22.40
2017,07,05,15,56,22.40
2017,07,05,15,57,22.30
2017,07,05,15,58,22.30
2017,07,05,15,59,22.30
2017,07,05,16,00,22.40
2017,07,05,16,01,22.50
2017,07,05,16,02,22.60
2017,07,05,16,03,22.60
2017,07,05,16,04,22.70
2017,07,05,16,05,22.70
2017,07,05,16,06,22.70
2017,07,05,16,07,22.70
2017,07,05,16,08,22.80
2017,07,05,16,09,22.80
2017,07,05,16,10,22.80
2017,07,05,16,11,22.90
2017,07,05,16,12,22.90
2017,07,05,16,13,22.90
2017,07,05,16,14,22.90
2017,07,05,16,15,23.00
2017,07,05,16,16,23.10
2017,07,05,16,17,23.10
2017,07,05,16,18,23.10
2017,07,05,16,19,23.00
2017,07,05,16,20,22.90
2017,07,05,16,21,22.90
2017,07,05,16,22,22.90
2017,07,05,16,23,22.90
2017,07,05,16,24,22.90
2017,07,05,16,25,22.90
2017,07,05,16,26,23.00
2017,07,05,16,27,23.10
2017,07,05,16,28,23.10
2017,07,05,16,29,23.10
2017,07,05,16,30,23.10
2017,07,05,16,31,23.00
2017,07,05,16,32,22.90
2017,07,05,16,33,22.90
2017,07,05,16,34,22.90
2017,07,05,16,35,22.80
2017,07,05,16,36,22.80
2017,07,05,16,37,22.70
2017,07,05,16,38,22.70
2017,07,05,16,39,22.70
2017,07,05,16,40,22.70
2017,07,05,16,41,22.70
2017,07,05,16,42,22.70
2017,07,05,16,43,22.70
2017,07,05,16,44,22.80
2017,07,05,16,45,22.80
2017,07,05,16,46,22.90
2017,07,05,16,47,22.90
2017,07,05,16,48,23.10
2017,07,05,16,49,23.20
2017,07,05,16,50,23.20
2017,07,05,16,51,23.30
2017,07,05,16,52,23.30
2017,07,05,16,53,23.30
2017,07,05,16,54,23.30
2017,07,05,16,55,23.30
2017,07,05,16,56,23.30
2017,07,05,16,57,23.40
2017,07,05,16,58,23.40
2017,07,05,16,59,23.40
2017,07,05,17,00,23.60
2017,07,05,17,01,23.60
2017,07,05,17,02,23.60
2017,07,05,17,03,23.70
2017,07,05,17,04,23.70
2017,07,05,17,05,23.70
2017,07,05,17,06,23.70
2017,07,05,17,07,23.70
2017,07,05,17,08,23.70
2017,07,05,17,09,23.80
2017,07,05,17,10,23.80
2017,07,05,17,11,23.80
2017,07,05,17,12,23.90
2017,07,05,17,13,23.90
2017,07,05,17,14,24.00
2017,07,05,17,15,24.10
2017,07,05,17,16,24.10
2017,07,05,17,17,24.30
2017,07,05,17,18,24.40
2017,07,05,17,19,24.50
2017,07,05,17,20,24.50
2017,07,05,17,21,24.70
2017,07,05,17,22,24.80
2017,07,05,17,23,24.80
2017,07,05,17,24,24.90
2017,07,05,17,25,25.00
2017,07,05,17,26,25.20
2017,07,05,17,27,25.30
2017,07,05,17,28,25.50
2017,07,05,17,29,25.70
2017,07,05,17,30,25.90
2017,07,05,17,31,25.90
2017,07,05,17,32,26.00
2017,07,05,17,33,26.10
2017,07,05,17,34,26.20
2017,07,05,17,35,26.30
2017,07,05,17,36,26.40
2017,07,05,17,37,26.50
2017,07,05,17,38,26.60
2017,07,05,17,39,26.60
2017,07,05,17,40,26.40
2017,07,05,17,41,26.40
2017,07,05,17,42,26.40
2017,07,05,17,43,26.40
2017,07,05,17,44,26.40
2017,07,05,17,45,26.40
2017,07,05,17,46,26.40
2017,07,05,17,47,26.40
2017,07,05,17,48,26.50
2017,07,05,17,49,26.60
2017,07,05,17,50,26.60
2017,07,05,17,51,26.60
2017,07,05,17,52,26.60
2017,07,05,17,53,26.60
2017,07,05,17,54,26.60
2017,07,05,17,55,26.60
2017,07,05,17,56,26.60
2017,07,05,17,57,26.60
2017,07,05,17,58,26.60
2017,07,05,17,59,26.60
2017,07,05,18,00,26.60
2017,07,05,18,01,26.60
2017,07,05,18,02,26.70
2017,07,05,18,03,26.80
2017,07,05,18,04,26.80
2017,07,05,18,05,26.80
2017,07,05,18,06,26.80
2017,07,05,18,07,26.70
2017,07,05,18,08,26.70
2017,07,05,18,09,26.70
2017,07,05,18,10,26.70
2017,07,05,18,11,26.70
2017,07,05,18,12,26.70
2017,07,05,18,13,26.70
2017,07,05,18,14,26.70
2017,07,05,18,15,26.60
2017,07,05,18,16,26.60
2017,07,05,18,17,26.60
2017,07,05,18,18,26.60
2017,07,05,18,19,26.60
2017,07,05,18,20,26.70
2017,07,05,18,21,26.70
2017,07,05,18,22,26.70
2017,07,05,18,23,26.70
2017,07,05,18,24,26.70
2017,07,05,18,25,26.70
2017,07,05,18,26,26.80
2017,07,05,18,27,26.90
2017,07,05,18,28,26.90
2017,07,05,18,29,27.00
2017,07,05,18,30,27.10
2017,07,05,18,31,27.00
2017,07,05,18,32,26.90
2017,07,05,18,33,26.90
2017,07,05,18,34,26.80
2017,07,05,18,35,26.80
2017,07,05,18,36,26.80
2017,07,05,18,37,26.80
2017,07,05,18,38,26.90
2017,07,05,18,39,26.90
2017,07,05,18,40,26.90
2017,07,05,18,41,26.90
2017,07,05,18,42,26.90
2017,07,05,18,43,26.90
2017,07,05,18,44,26.90
2017,07,05,18,45,26.90
2017,07,05,18,46,26.90
2017,07,05,18,47,26.90
2017,07,05,18,48,26.90
2017,07,05,18,49,26.90
2017,07,05,18,50,26.80
2017,07,05,18,51,26.80
2017,07,05,18,52,26.80
2017,07,05,18,53,26.80
2017,07,05,18,54,26.80
2017,07,05,18,55,26.80
2017,07,05,18,56,26.80
2017,07,05,18,57,26.70
2017,07,05,18,58,26.70
2017,07,05,18,59,26.70
2017,07,05,19,00,26.60
2017,07,05,19,01,26.60
2017,07,05,19,02,26.60
2017,07,05,19,03,26.60
2017,07,05,19,04,26.60
2017,07,05,19,05,26.60
2017,07,05,19,06,26.60
2017,07,05,19,07,26.70
2017,07,05,19,08,26.70
2017,07,05,19,09,26.80
2017,07,05,19,10,26.80
2017,07,05,19,11,26.70
2017,07,05,19,12,26.70
2017,07,05,19,13,26.70
2017,07,05,19,14,26.80
2017,07,05,19,15,26.80
2017,07,05,19,16,26.80
2017,07,05,19,17,26.80
2017,07,05,19,18,26.80
2017,07,05,19,19,26.80
2017,07,05,19,20,26.80
2017,07,05,19,21,26.80
2017,07,05,19,22,26.80
2017,07,05,19,23,26.80
2017,07,05,19,24,26.70
2017,07,05,19,25,26.70
2017,07,05,19,26,26.70
2017,07,05,19,27,26.70
2017,07,05,19,28,26.70
2017,07,05,19,29,26.70
2017,07,05,19,30,26.70
2017,07,05,19,31,26.70
2017,07,05,19,32,26.80
2017,07,05,19,33,26.80
2017,07,05,19,34,26.80
2017,07,05,19,35,26.80
2017,07,05,19,36,26.70
2017,07,05,19,37,26.70
2017,07,05,19,38,26.70
2017,07,05,19,39,26.70
2017,07,05,19,40,26.70
2017,07,05,19,41,26.60
2017,07,05,19,42,26.60
2017,07,05,19,43,26.60
2017,07,05,19,44,26.60
2017,07,05,19,45,26.60
2017,07,05,19,46,26.60
2017,07,05,19,47,26.60
2017,07,05,19,48,26.60
2017,07,05,19,49,26.60
2017,07,05,19,50,26.60
2017,07,05,19,51,26.60
2017,07,05,19,52,26.60
2017,07,05,19,53,26.60
2017,07,05,19,54,26.50
2017,07,05,19,55,26.40
2017,07,05,19,56,26.40
2017,07,05,19,57,26.40
2017,07,05,19,58,26.40
2017,07,05,19,59,26.40
2017,07,05,20,00,26.40
2017,07,05,20,01,26.30
2017,07,05,20,02,26.30
2017,07,05,20,03,26.30
2017,07,05,20,04,26.30
2017,07,05,20,05,26.20
2017,07,05,20,06,26.20
2017,07,05,20,07,26.20
2017,07,05,20,08,26.20
2017,07,05,20,09,26.10
2017,07,05,20,10,26.10
2017,07,05,20,11,26.00
2017,07,05,20,12,25.90
2017,07,05,20,13,25.90
2017,07,05,20,14,25.80
2017,07,05,20,15,25.80
2017,07,05,20,16,25.70
2017,07,05,20,17,25.60
2017,07,05,20,18,25.50
2017,07,05,20,19,25.40
2017,07,05,20,20,25.40
2017,07,05,20,21,25.30
2017,07,05,20,22,25.30
2017,07,05,20,23,25.20
2017,07,05,20,24,25.20
2017,07,05,20,25,25.20
2017,07,05,20,26,25.10
2017,07,05,20,27,25.10
2017,07,05,20,28,25.10
2017,07,05,20,29,25.00
2017,07,05,20,30,25.00
2017,07,05,20,31,24.90
2017,07,05,20,32,24.90
2017,07,05,20,33,24.90
2017,07,05,20,34,24.90
2017,07,05,20,35,24.80
2017,07,05,20,36,24.80
2017,07,05,20,37,24.80
2017,07,05,20,38,24.80
2017,07,05,20,39,24.70
2017,07,05,20,40,24.70
2017,07,05,20,41,24.70
2017,07,05,20,42,24.70
2017,07,05,20,43,24.60
2017,07,05,20,44,24.60
2017,07,05,20,45,24.60
2017,07,05,20,46,24.60
2017,07,05,20,47,24.50
2017,07,05,20,48,24.50
2017,07,05,20,49,24.50
2017,07,05,20,50,24.50
2017,07,05,20,51,24.50
2017,07,05,20,52,24.40
2017,07,05,20,53,24.40
2017,07,05,20,54,24.40
2017,07,05,20,55,24.40
2017,07,05,20,56,24.40
2017,07,05,20,57,24.30
2017,07,05,20,58,24.30
2017,07,05,20,59,24.30
2017,07,05,21,00,24.30
2017,07,05,21,01,24.20
2017,07,05,21,02,24.20
2017,07,05,21,03,24.10
2017,07,05,21,04,24.10
2017,07,05,21,05,24.10
2017,07,05,21,06,24.10
2017,07,05,21,07,24.10
2017,07,05,21,08,24.00
2017,07,05,21,09,23.90
2017,07,05,21,10,23.90
2017,07,05,21,11,23.90
2017,07,05,21,12,23.90
2017,07,05,21,13,23.80
2017,07,05,21,14,23.80
2017,07,05,21,15,23.80
2017,07,05,21,16,23.80
2017,07,05,21,17,23.70
2017,07,05,21,18,23.70
2017,07,05,21,19,23.70
2017,07,05,21,20,23.70
2017,07,05,21,21,23.70
2017,07,05,21,22,23.70
2017,07,05,21,23,23.70
2017,07,05,21,24,23.70
2017,07,05,21,25,23.70
2017,07,05,21,26,23.60
2017,07,05,21,27,23.60
2017,07,05,21,28,23.60
2017,07,05,21,29,23.60
2017,07,05,21,30,23.50
2017,07,05,21,31,23.40
2017,07,05,21,32,23.40
2017,07,05,21,33,23.30
2017,07,05,21,34,23.30
2017,07,05,21,35,23.20
2017,07,05,21,36,23.20
2017,07,05,21,37,23.10
2017,07,05,21,38,23.00
2017,07,05,21,39,22.90
2017,07,05,21,40,22.90
2017,07,05,21,41,22.80
2017,07,05,21,42,22.70
2017,07,05,21,43,22.60
2017,07,05,21,44,22.60
2017,07,05,21,45,22.40
2017,07,05,21,46,22.30
2017,07,05,21,47,22.20
2017,07,05,21,48,22.10
2017,07,05,21,49,22.00
2017,07,05,21,50,22.00
2017,07,05,21,51,21.90
2017,07,05,21,52,21.80
2017,07,05,21,53,21.70
2017,07,05,21,54,21.60
2017,07,05,21,55,21.60
2017,07,05,21,56,21.60
2017,07,05,21,57,21.60
2017,07,05,21,58,21.60
2017,07,05,21,59,21.50
2017,07,05,22,00,21.40
2017,07,05,22,01,21.40
2017,07,05,22,02,21.30
2017,07,05,22,03,21.30
2017,07,05,22,04,21.30
2017,07,05,22,05,21.30
2017,07,05,22,06,21.30
2017,07,05,22,07,21.30
2017,07,05,22,08,21.20
2017,07,05,22,09,21.20
2017,07,05,22,10,21.10
2017,07,05,22,11,21.10
2017,07,05,22,12,21.10
2017,07,05,22,13,21.10
2017,07,05,22,14,21.10
2017,07,05,22,15,21.10
2017,07,05,22,16,21.10
2017,07,05,22,17,21.10
2017,07,05,22,18,21.10
2017,07,05,22,19,21.10
2017,07,05,22,20,21.10
2017,07,05,22,21,21.00
2017,07,05,22,22,21.00
2017,07,05,22,23,21.00
2017,07,05,22,24,20.90
2017,07,05,22,25,20.80
2017,07,05,22,26,20.80
2017,07,05,22,27,20.70
2017,07,05,22,28,20.70
2017,07,05,22,29,20.60
2017,07,05,22,30,20.60
2017,07,05,22,31,20.60
2017,07,05,22,32,20.50
2017,07,05,22,33,20.50
2017,07,05,22,34,20.50
2017,07,05,22,35,20.40
2017,07,05,22,36,20.40
2017,07,05,22,37,20.30
2017,07,05,22,38,20.30
2017,07,05,22,39,20.20
2017,07,05,22,40,20.20
2017,07,05,22,41,20.20
2017,07,05,22,42,20.10
2017,07,05,22,43,20.10
2017,07,05,22,44,19.90
2017,07,05,22,45,19.90
2017,07,05,22,46,19.80
2017,07,05,22,47,19.70
2017,07,05,22,48,19.60
2017,07,05,22,49,19.50
2017,07,05,22,50,19.40
2017,07,05,22,51,19.30
2017,07,05,22,52,19.20
2017,07,05,22,53,19.10
2017,07,05,22,54,19.10
2017,07,05,22,55,19.00
2017,07,05,22,56,18.90
2017,07,05,22,57,18.90
2017,07,05,22,58,18.90
2017,07,05,22,59,18.90
2017,07,05,23,00,18.80
2017,07,05,23,01,18.80
2017,07,05,23,02,18.70
2017,07,05,23,03,18.70
2017,07,05,23,04,18.60
2017,07,05,23,05,18.50
2017,07,05,23,06,18.50
2017,07,05,23,07,18.40
2017,07,05,23,08,18.30
2017,07,05,23,09,18.30
2017,07,05,23,10,18.20
2017,07,05,23,11,18.20
2017,07,05,23,12,18.20
2017,07,05,23,13,18.10
2017,07,05,23,14,18.00
2017,07,05,23,15,17.90
2017,07,05,23,16,17.90
2017,07,05,23,17,17.80
2017,07,05,23,18,17.70
2017,07,05,23,19,17.70
2017,07,05,23,20,17.60
2017,07,05,23,21,17.50
2017,07,05,23,22,17.50
2017,07,05,23,23,17.40
2017,07,05,23,24,17.40
2017,07,05,23,25,17.30
2017,07,05,23,26,17.30
2017,07,05,23,27,17.30
2017,07,05,23,28,17.30
2017,07,05,23,29,17.30
2017,07,05,23,30,17.30
2017,07,05,23,31,17.30
2017,07,05,23,32,17.30
2017,07,05,23,33,17.30
2017,07,05,23,34,17.30
2017,07,05,23,35,17.30
2017,07,05,23,36,17.30
2017,07,05,23,37,17.30
2017,07,05,23,38,17.30
2017,07,05,23,39,17.30
2017,07,05,23,40,17.30
2017,07,05,23,41,17.30
2017,07,05,23,42,17.30
2017,07,05,23,43,17.30
2017,07,05,23,44,17.30
2017,07,05,23,45,17.30
2017,07,05,23,46,17.30
2017,07,05,23,47,17.30
2017,07,05,23,48,17.30
2017,07,05,23,49,17.30
2017,07,05,23,50,17.20
2017,07,05,23,51,17.20
2017,07,05,23,52,17.10
2017,07,05,23,53,17.10
2017,07,05,23,54,17.00
2017,07,05,23,55,17.00
2017,07,05,23,56,17.00
2017,07,05,23,57,17.00
2017,07,05,23,58,16.90
2017,07,05,23,59,16.90
